Regional Weather Roundup
Issued by NWS

Home | Current Version | Previous Version | Graphics & Text | Print | Product List | Glossary Off
Versions: 1 2 3 4 5 6 7 8 9 10 11 12 13 14 15 16 17 18 19 20 21 22 23 24 25 26 27 28 29 30 31 32 33 34 35 36 37 38 39 40 41 42 43 44 45 46 47 48 49 50

000
ASUS43 KLSX 041559
RWRMO

WEATHER SUMMARY FOR MISSOURI
NATIONAL WEATHER SERVICE SPRINGFIELD MO
1100 AM CDT MON MAY 04 2015

NOTE: "FAIR" INDICATES FEW OR NO CLOUDS BELOW 12,000 FEET WITH NO
       SIGNIFICANT WEATHER AND/OR OBSTRUCTIONS TO VISIBILITY.
       CURRENT SKY AND/OR WEATHER CONDITIONS ARE NOT AVAILABLE FOR
       CHILLICOTHE AND FARMINGTON.

MOZ001>031-035>038-043-044-053-054-041700-
...NORTHERN AND WESTERN MISSOURI...

CITY           SKY/WX    TMP DP  RH WIND       PRES   REMARKS
KANSAS CTY INT CLOUDY    68  60  75 CALM      30.06R
KANSAS C DTWN  CLOUDY    69  59  70 CALM      30.05R
LEE`S SUMMIT   CLOUDY    70  60  70 VRB3      30.07R
ST JOSEPH      CLOUDY    74  57  55 SE5       30.04R
CHILLICOTHE      N/A     72  60  66 SW7       30.07R
KIRKSVILLE     MOSUNNY   73  61  65 S9        30.07R

$$
MOZ066>068-077>081-088>096-101>105-041700-
...SOUTHWEST MISSOURI...

CITY           SKY/WX    TMP DP  RH WIND       PRES   REMARKS
SPRINGFIELD    PTSUNNY   73  56  54 SW17      30.13R
JOPLIN         PTSUNNY   75  60  59 S20       30.10R

$$
MOZ032>034-039>042-045>050-055>058-069>072-041700-
...CENTRAL MISSOURI...

CITY           SKY/WX    TMP DP  RH WIND       PRES   REMARKS
COLUMBIA       CLOUDY    74  60  61 SW14      30.10R
JEFFERSON CITY CLOUDY    74  57  55 SW8       30.10R
ROLLA          MOSUNNY   76  59  55 S15       30.11R
SEDALIA        LGT RAIN  67  59  75 SW8       30.09R
OSAGE BEACH    PTSUNNY  N/A N/A N/A SW13      30.10S

$$
MOZ051-052-059>065-041700-
...EAST CENTRAL MISSOURI...

CITY           SKY/WX    TMP DP  RH WIND       PRES   REMARKS
ST LOUIS INTL  CLOUDY    78  59  51 SW9       30.11S
SPIRIT OF STL  PTSUNNY   77  59  53 SW12      30.10R
ST CHARLES     CLOUDY    77  58  51 SW9       30.10R

$$
MOZ072>076-082>087-097>100-106>115-041700-
...SOUTH CENTRAL AND SOUTHEAST MISSOURI...

CITY           SKY/WX    TMP DP  RH WIND       PRES   REMARKS
CAPE GIRARDEAU MOSUNNY   77  60  55 S9        30.18R
FARMINGTON     PTSUNNY   75  59  57 SW9       30.21R
POPLAR BLUFF   MOSUNNY   79  59  50 S12G21    30.17R
WEST PLAINS    MOSUNNY   74  57  55 S7G16     30.19R

$$


USA.gov is the U.S. government's official web portal to all federal, state and local government web resources and services.